TimeHST,TemperatureF,Dew PointF,Humidity,Sea Level PressureIn,VisibilityMPH,Wind Direction,Wind SpeedMPH,Gust SpeedMPH,PrecipitationIn,Events,Conditions,WindDirDegrees,DateUTC
12:54 AM,63.0,57.9,84,30.01,10.0,SSE,4.6,-,N/A,,Clear,160,2012-12-29 10:54:00
1:54 AM,63.0,57.9,84,29.99,10.0,SSE,6.9,-,N/A,,Clear,150,2012-12-29 11:54:00
2:54 AM,62.1,57.0,84,30.00,10.0,SSE,4.6,-,N/A,,Clear,160,2012-12-29 12:54:00
3:54 AM,61.0,55.9,83,30.00,10.0,South,3.5,-,N/A,,Clear,190,2012-12-29 13:54:00
4:54 AM,62.1,57.9,86,30.01,10.0,SE,6.9,-,N/A,,Clear,140,2012-12-29 14:54:00
5:54 AM,61.0,57.0,87,30.01,10.0,Calm,Calm,-,N/A,,Clear,0,2012-12-29 15:54:00
6:54 AM,61.0,57.0,87,30.02,10.0,SE,6.9,-,N/A,,Clear,140,2012-12-29 16:54:00
7:54 AM,64.0,57.0,78,30.03,10.0,Calm,Calm,-,N/A,,Clear,0,2012-12-29 17:54:00
8:54 AM,72.0,60.1,66,30.05,10.0,Calm,Calm,-,N/A,,Clear,0,2012-12-29 18:54:00
9:54 AM,75.9,62.1,62,30.06,10.0,NW,3.5,-,N/A,,Partly Cloudy,320,2012-12-29 19:54:00
10:54 AM,79.0,62.1,56,30.04,10.0,North,4.6,-,N/A,,Partly Cloudy,350,2012-12-29 20:54:00
11:54 AM,82.0,66.0,58,30.02,10.0,NE,15.0,-,N/A,,Partly Cloudy,40,2012-12-29 21:54:00
12:54 PM,81.0,66.0,60,29.99,10.0,NNE,15.0,-,N/A,,Scattered Clouds,30,2012-12-29 22:54:00
1:54 PM,81.0,66.0,60,29.96,10.0,NE,15.0,-,N/A,,Scattered Clouds,40,2012-12-29 23:54:00
2:54 PM,81.0,64.9,58,29.95,10.0,NNE,15.0,-,N/A,,Scattered Clouds,30,2012-12-30 00:54:00
3:54 PM,79.0,64.0,60,29.95,10.0,NE,15.0,-,N/A,,Scattered Clouds,40,2012-12-30 01:54:00
4:54 PM,78.1,64.0,62,29.95,10.0,NE,12.7,-,N/A,,Scattered Clouds,50,2012-12-30 02:54:00
5:54 PM,73.9,64.9,73,29.96,10.0,ENE,10.4,-,N/A,,Partly Cloudy,60,2012-12-30 03:54:00
6:54 PM,73.0,66.0,79,29.98,10.0,East,4.6,-,N/A,,Clear,80,2012-12-30 04:54:00
7:54 PM,71.1,64.0,78,29.99,10.0,East,4.6,-,N/A,,Clear,100,2012-12-30 05:54:00
8:54 PM,71.1,64.9,81,30.00,10.0,Calm,Calm,-,N/A,,Clear,0,2012-12-30 06:54:00
9:54 PM,68.0,64.9,90,30.00,10.0,SE,5.8,-,N/A,,Clear,140,2012-12-30 07:54:00
10:54 PM,66.0,62.1,87,30.00,10.0,SSE,4.6,-,N/A,,Clear,160,2012-12-30 08:54:00
11:54 PM,66.0,63.0,90,29.99,10.0,SE,6.9,-,N/A,,Partly Cloudy,130,2012-12-30 09:54:00